Climatologie pour Saint-Brevin les Pins
Jour • Résumé pour juillet 9, 2017 Système :  Métrique    Anglais   Mixte
« - 1 jour
+ 1 jour »
Jour Semaine Mois Année Personnalisé
  Maximum : Minimum : Moyenne :
Température sous abri : 31.4 °C 17.5 °C 23.6 °C
Point de rosée : 19.6 °C 14.7 °C 17.1 °C
Humidité : 89 % 46 % 68 %
Vitesse du vent : 19.3 km/h 0.0 km/h 6.4 km/h
Rafale : 25.7 km/h - -
Direction :- - South
Pression : 1014.8 hPa 1010.0 hPa -
Précipitations : 0.0 mm    
Historical Graphs
 
 
Tableau de données pour juillet 9, 2017
Heure Tempé Pt rosée Pression Vent Vitesse Rafale Humidité Taux pluie (/hr) Soleil
00:00 22.3 °C 15.4 °C 1014.8 hPa NNE 3.2 km/h 11.3 km/h 65 % 0.0 mm 0 W/m2
00:10 22.1 °C 15.2 °C 1014.8 hPa NNE 3.2 km/h 12.9 km/h 65 % 0.0 mm 0 W/m2
00:15 21.9 °C 15.0 °C 1014.8 hPa North 1.6 km/h 12.9 km/h 65 % 0.0 mm 0 W/m2
00:20 21.9 °C 15.2 °C 1014.8 hPa North 3.2 km/h 11.3 km/h 66 % 0.0 mm 0 W/m2
00:25 21.9 °C 15.0 °C 1014.8 hPa NNE 3.2 km/h 12.9 km/h 65 % 0.0 mm 0 W/m2
00:30 21.8 °C 14.9 °C 1014.8 hPa NE 4.8 km/h 12.9 km/h 65 % 0.0 mm 0 W/m2
00:35 21.7 °C 15.0 °C 1014.8 hPa NNE 4.8 km/h 11.3 km/h 66 % 0.0 mm 0 W/m2
00:40 21.7 °C 14.8 °C 1014.4 hPa NNE 8.0 km/h 9.7 km/h 65 % 0.0 mm 0 W/m2
00:45 21.6 °C 14.7 °C 1014.4 hPa North 1.6 km/h 14.5 km/h 65 % 0.0 mm 0 W/m2
00:50 21.5 °C 14.9 °C 1014.4 hPa NNE 8.0 km/h 14.5 km/h 66 % 0.0 mm 0 W/m2
00:55 21.4 °C 14.8 °C 1014.4 hPa North 4.8 km/h 14.5 km/h 66 % 0.0 mm 0 W/m2
01:00 21.3 °C 14.7 °C 1014.4 hPa North 4.8 km/h 16.1 km/h 66 % 0.0 mm 0 W/m2
01:05 21.3 °C 14.9 °C 1014.1 hPa ENE 3.2 km/h 17.7 km/h 67 % 0.0 mm 0 W/m2
01:10 21.3 °C 14.7 °C 1014.1 hPa NNE 4.8 km/h 17.7 km/h 66 % 0.0 mm 0 W/m2
01:15 21.3 °C 14.9 °C 1014.1 hPa NNW 8.0 km/h 14.5 km/h 67 % 0.0 mm 0 W/m2
01:20 21.2 °C 14.8 °C 1014.1 hPa NNE 1.6 km/h 14.5 km/h 67 % 0.0 mm 0 W/m2
01:25 21.0 °C 14.9 °C 1014.1 hPa NE 6.4 km/h 14.5 km/h 68 % 0.0 mm 0 W/m2
01:30 20.8 °C 14.9 °C 1014.1 hPa NNE 3.2 km/h 14.5 km/h 69 % 0.0 mm 0 W/m2
01:35 20.7 °C 15.1 °C 1014.1 hPa North 8.0 km/h 16.1 km/h 70 % 0.0 mm 0 W/m2
01:40 20.7 °C 15.0 °C 1013.8 hPa NE 6.4 km/h 16.1 km/h 70 % 0.0 mm 0 W/m2
01:45 20.6 °C 15.2 °C 1014.1 hPa Calm   12.9 km/h 71 % 0.0 mm 0 W/m2
01:50 20.6 °C 15.1 °C 1013.8 hPa NNE 1.6 km/h 14.5 km/h 71 % 0.0 mm 0 W/m2
01:55 20.5 °C 15.3 °C 1014.1 hPa NNE 4.8 km/h 14.5 km/h 72 % 0.0 mm 0 W/m2
02:00 20.4 °C 15.4 °C 1013.8 hPa NNW 4.8 km/h 11.3 km/h 73 % 0.0 mm 0 W/m2
02:05 20.3 °C 15.3 °C 1013.8 hPa North 3.2 km/h 16.1 km/h 73 % 0.0 mm 0 W/m2
02:10 20.2 °C 15.2 °C 1013.8 hPa NNE 1.6 km/h 16.1 km/h 73 % 0.0 mm 0 W/m2
02:15 20.1 °C 15.3 °C 1013.8 hPa North 4.8 km/h 12.9 km/h 74 % 0.0 mm 0 W/m2
02:20 19.9 °C 15.4 °C 1013.8 hPa NNE 4.8 km/h 11.3 km/h 75 % 0.0 mm 0 W/m2
02:25 19.8 °C 15.3 °C 1013.8 hPa NNE 6.4 km/h 12.9 km/h 75 % 0.0 mm 0 W/m2
02:30 19.9 °C 15.5 °C 1013.4 hPa ENE 8.0 km/h 12.9 km/h 76 % 0.0 mm 0 W/m2
02:35 19.9 °C 15.5 °C 1013.4 hPa ENE 4.8 km/h 12.9 km/h 76 % 0.0 mm 0 W/m2
02:40 19.8 °C 15.4 °C 1013.4 hPa NE 8.0 km/h 11.3 km/h 76 % 0.0 mm 0 W/m2
02:45 19.6 °C 15.5 °C 1013.4 hPa NNE 3.2 km/h 14.5 km/h 77 % 0.0 mm 0 W/m2
02:50 19.5 °C 15.6 °C 1013.4 hPa NE 6.4 km/h 14.5 km/h 78 % 0.0 mm 0 W/m2
02:55 19.4 °C 15.5 °C 1013.1 hPa North 6.4 km/h 11.3 km/h 78 % 0.0 mm 0 W/m2
03:00 19.4 °C 15.7 °C 1013.4 hPa NE 4.8 km/h 14.5 km/h 79 % 0.0 mm 0 W/m2
03:05 19.3 °C 15.6 °C 1013.4 hPa NNE 1.6 km/h 14.5 km/h 79 % 0.0 mm 0 W/m2
03:10 19.2 °C 15.7 °C 1013.1 hPa NE 6.4 km/h 11.3 km/h 80 % 0.0 mm 0 W/m2
03:15 19.2 °C 15.7 °C 1013.1 hPa NE 4.8 km/h 11.3 km/h 80 % 0.0 mm 0 W/m2
03:20 19.2 °C 15.8 °C 1013.1 hPa NNE 4.8 km/h 12.9 km/h 81 % 0.0 mm 0 W/m2
03:25 19.1 °C 15.8 °C 1013.1 hPa NNE 3.2 km/h 12.9 km/h 81 % 0.0 mm 0 W/m2
03:30 19.1 °C 15.7 °C 1013.1 hPa NE 14.5 km/h 14.5 km/h 81 % 0.0 mm 0 W/m2
03:35 19.1 °C 15.9 °C 1013.1 hPa NNW 6.4 km/h 14.5 km/h 82 % 0.0 mm 0 W/m2
03:40 19.1 °C 15.9 °C 1012.8 hPa NE 8.0 km/h 14.5 km/h 82 % 0.0 mm 0 W/m2
03:45 19.0 °C 15.9 °C 1012.8 hPa North 6.4 km/h 14.5 km/h 82 % 0.0 mm 0 W/m2
03:50 19.0 °C 15.9 °C 1012.8 hPa Calm   14.5 km/h 82 % 0.0 mm 0 W/m2
03:55 18.9 °C 16.0 °C 1012.8 hPa North 9.7 km/h 11.3 km/h 83 % 0.0 mm 0 W/m2
04:00 18.8 °C 15.9 °C 1012.8 hPa NNE 3.2 km/h 12.9 km/h 83 % 0.0 mm 0 W/m2
04:05 18.7 °C 16.0 °C 1012.8 hPa Calm   12.9 km/h 84 % 0.0 mm 0 W/m2
04:10 18.7 °C 16.0 °C 1012.8 hPa North 4.8 km/h 16.1 km/h 84 % 0.0 mm 0 W/m2
04:20 18.5 °C 15.7 °C 1012.8 hPa NNW 6.4 km/h 12.9 km/h 84 % 0.0 mm 0 W/m2
04:25 18.4 °C 15.8 °C 1012.8 hPa NE 1.6 km/h 12.9 km/h 85 % 0.0 mm 0 W/m2
04:30 18.4 °C 15.8 °C 1012.4 hPa ENE 8.0 km/h 14.5 km/h 85 % 0.0 mm 0 W/m2
04:35 18.4 °C 15.8 °C 1012.8 hPa NE 3.2 km/h 14.5 km/h 85 % 0.0 mm 0 W/m2
04:40 18.3 °C 15.8 °C 1012.4 hPa North 8.0 km/h 11.3 km/h 85 % 0.0 mm 0 W/m2
04:45 18.3 °C 15.9 °C 1012.4 hPa NNE 8.0 km/h 11.3 km/h 86 % 0.0 mm 0 W/m2
04:50 18.2 °C 15.8 °C 1012.4 hPa NNE 3.2 km/h 11.3 km/h 86 % 0.0 mm 0 W/m2
04:55 18.2 °C 15.8 °C 1012.4 hPa ENE 6.4 km/h 11.3 km/h 86 % 0.0 mm 0 W/m2
05:00 18.1 °C 15.7 °C 1012.8 hPa NNE 8.0 km/h 11.3 km/h 86 % 0.0 mm 0 W/m2
05:05 18.0 °C 15.6 °C 1012.8 hPa NE 3.2 km/h 9.7 km/h 86 % 0.0 mm 0 W/m2
05:10 18.0 °C 15.8 °C 1012.4 hPa Calm   12.9 km/h 87 % 0.0 mm 0 W/m2
05:15 18.0 °C 15.8 °C 1012.4 hPa Calm   12.9 km/h 87 % 0.0 mm 0 W/m2
05:20 17.9 °C 15.7 °C 1012.4 hPa NE 1.6 km/h 11.3 km/h 87 % 0.0 mm 0 W/m2
05:25 17.8 °C 15.6 °C 1012.4 hPa NNE 4.8 km/h 11.3 km/h 87 % 0.0 mm 0 W/m2
05:30 17.7 °C 15.5 °C 1012.4 hPa Calm   8.0 km/h 87 % 0.0 mm 0 W/m2
05:35 17.7 °C 15.7 °C 1012.4 hPa NE 4.8 km/h 9.7 km/h 88 % 0.0 mm 0 W/m2
05:40 17.7 °C 15.7 °C 1012.4 hPa North 4.8 km/h 9.7 km/h 88 % 0.0 mm 0 W/m2
05:45 17.6 °C 15.5 °C 1012.4 hPa NNW 3.2 km/h 9.7 km/h 88 % 0.0 mm 0 W/m2
05:50 17.6 °C 15.8 °C 1012.4 hPa North 4.8 km/h 9.7 km/h 89 % 0.0 mm 0 W/m2
05:55 17.6 °C 15.5 °C 1012.4 hPa North 1.6 km/h 9.7 km/h 88 % 0.0 mm 0 W/m2
06:00 17.5 °C 15.5 °C 1012.4 hPa NNE 1.6 km/h 9.7 km/h 88 % 0.0 mm 0 W/m2
06:05 17.5 °C 15.7 °C 1012.8 hPa North 1.6 km/h 9.7 km/h 89 % 0.0 mm 0 W/m2
06:10 17.6 °C 15.7 °C 1012.4 hPa NNE 6.4 km/h 11.3 km/h 89 % 0.0 mm 0 W/m2
06:15 17.5 °C 15.7 °C 1012.4 hPa NE 3.2 km/h 11.3 km/h 89 % 0.0 mm 0 W/m2
06:20 17.6 °C 15.5 °C 1012.4 hPa Calm   12.9 km/h 88 % 0.0 mm 0 W/m2
06:25 17.6 °C 15.5 °C 1012.4 hPa NNE 1.6 km/h 12.9 km/h 88 % 0.0 mm 0 W/m2
06:30 17.6 °C 15.5 °C 1012.4 hPa NE 6.4 km/h 12.9 km/h 88 % 0.0 mm 5 W/m2
06:35 17.6 °C 15.5 °C 1012.4 hPa NE 3.2 km/h 12.9 km/h 88 % 0.0 mm 9 W/m2
06:40 17.5 °C 15.5 °C 1012.4 hPa NNE 3.2 km/h 11.3 km/h 88 % 0.0 mm 12 W/m2
06:45 17.5 °C 15.5 °C 1012.4 hPa NNE 8.0 km/h 12.9 km/h 88 % 0.0 mm 18 W/m2
06:50 17.6 °C 15.6 °C 1012.4 hPa NE 6.4 km/h 12.9 km/h 88 % 0.0 mm 21 W/m2
07:00 17.7 °C 15.7 °C 1012.4 hPa NE 3.2 km/h 12.9 km/h 88 % 0.0 mm 26 W/m2
07:05 17.8 °C 15.6 °C 1012.4 hPa NNW 3.2 km/h 12.9 km/h 87 % 0.0 mm 28 W/m2
07:10 17.8 °C 15.6 °C 1012.4 hPa NE 6.4 km/h 12.9 km/h 87 % 0.0 mm 32 W/m2
07:15 17.9 °C 15.7 °C 1012.4 hPa Calm   12.9 km/h 87 % 0.0 mm 32 W/m2
07:20 17.9 °C 15.7 °C 1012.4 hPa ENE 6.4 km/h 12.9 km/h 87 % 0.0 mm 32 W/m2
07:25 17.9 °C 15.7 °C 1012.4 hPa NNE 3.2 km/h 14.5 km/h 87 % 0.0 mm 33 W/m2
07:30 17.9 °C 15.7 °C 1012.4 hPa North 11.3 km/h 14.5 km/h 87 % 0.0 mm 39 W/m2
07:35 17.9 °C 15.6 °C 1012.1 hPa North 1.6 km/h 14.5 km/h 86 % 0.0 mm 44 W/m2
07:45 18.1 °C 15.7 °C 1012.4 hPa NE 8.0 km/h 16.1 km/h 86 % 0.0 mm 58 W/m2
07:50 18.2 °C 15.7 °C 1012.4 hPa NE 4.8 km/h 12.9 km/h 85 % 0.0 mm 70 W/m2
07:55 18.4 °C 15.9 °C 1012.4 hPa NE 6.4 km/h 14.5 km/h 85 % 0.0 mm 81 W/m2
08:00 18.7 °C 15.9 °C 1012.4 hPa NNE 9.7 km/h 17.7 km/h 84 % 0.0 mm 105 W/m2
08:05 18.7 °C 15.8 °C 1012.4 hPa North 9.7 km/h 17.7 km/h 83 % 0.0 mm 90 W/m2
08:10 18.8 °C 15.8 °C 1012.4 hPa North 9.7 km/h 17.7 km/h 83 % 0.0 mm 95 W/m2
08:15 18.8 °C 15.9 °C 1012.4 hPa NNE 1.6 km/h 16.1 km/h 83 % 0.0 mm 95 W/m2
08:20 18.9 °C 15.9 °C 1012.4 hPa Calm   14.5 km/h 83 % 0.0 mm 100 W/m2
08:25 18.9 °C 16.0 °C 1012.4 hPa North 3.2 km/h 11.3 km/h 83 % 0.0 mm 107 W/m2
08:30 19.0 °C 16.0 °C 1012.8 hPa Calm   17.7 km/h 83 % 0.0 mm 153 W/m2
08:35 19.2 °C 16.0 °C 1012.8 hPa North 9.7 km/h 17.7 km/h 82 % 0.0 mm 292 W/m2
08:40 19.6 °C 16.2 °C 1012.8 hPa NE 14.5 km/h 16.1 km/h 81 % 0.0 mm 292 W/m2
08:45 19.9 °C 16.4 °C 1012.8 hPa NNE 1.6 km/h 16.1 km/h 80 % 0.0 mm 302 W/m2
08:50 20.2 °C 16.5 °C 1012.8 hPa North 6.4 km/h 16.1 km/h 79 % 0.0 mm 313 W/m2
08:55 20.3 °C 16.2 °C 1012.8 hPa NNE 12.9 km/h 20.9 km/h 77 % 0.0 mm 325 W/m2
09:00 20.5 °C 16.3 °C 1012.8 hPa NNE 9.7 km/h 20.9 km/h 77 % 0.0 mm 336 W/m2
09:05 20.7 °C 16.3 °C 1012.8 hPa NNE 9.7 km/h 17.7 km/h 76 % 0.0 mm 352 W/m2
09:10 20.8 °C 16.2 °C 1012.8 hPa North 11.3 km/h 17.7 km/h 75 % 0.0 mm 362 W/m2
09:15 21.2 °C 16.8 °C 1012.8 hPa NW 9.7 km/h 17.7 km/h 76 % 0.0 mm 376 W/m2
09:20 21.5 °C 16.7 °C 1012.4 hPa NNE 6.4 km/h 17.7 km/h 74 % 0.0 mm 387 W/m2
09:25 21.9 °C 16.9 °C 1012.4 hPa North 11.3 km/h 14.5 km/h 73 % 0.0 mm 403 W/m2
09:30 22.1 °C 16.8 °C 1012.8 hPa North 19.3 km/h 19.3 km/h 72 % 0.0 mm 417 W/m2
09:35 22.2 °C 16.7 °C 1012.8 hPa NNE 9.7 km/h 19.3 km/h 71 % 0.0 mm 434 W/m2
09:40 22.3 °C 16.8 °C 1012.4 hPa NE 9.7 km/h 16.1 km/h 71 % 0.0 mm 446 W/m2
09:45 22.7 °C 16.9 °C 1012.4 hPa NNE 4.8 km/h 16.1 km/h 70 % 0.0 mm 461 W/m2
09:50 22.8 °C 16.8 °C 1012.4 hPa North 8.0 km/h 14.5 km/h 69 % 0.0 mm 475 W/m2
09:55 23.1 °C 17.1 °C 1012.4 hPa ENE 6.4 km/h 17.7 km/h 69 % 0.0 mm 490 W/m2
10:00 23.2 °C 17.2 °C 1012.4 hPa NNE 1.6 km/h 17.7 km/h 69 % 0.0 mm 504 W/m2
10:05 23.6 °C 17.3 °C 1012.4 hPa North 8.0 km/h 14.5 km/h 68 % 0.0 mm 520 W/m2
10:15 23.8 °C 17.0 °C 1012.4 hPa North 12.9 km/h 16.1 km/h 66 % 0.0 mm 543 W/m2
10:20 24.0 °C 17.3 °C 1012.4 hPa NNW 6.4 km/h 14.5 km/h 66 % 0.0 mm 555 W/m2
10:30 24.3 °C 17.5 °C 1012.4 hPa NE 6.4 km/h 12.9 km/h 66 % 0.0 mm 584 W/m2
10:35 24.4 °C 17.4 °C 1012.4 hPa NNW 11.3 km/h 17.7 km/h 65 % 0.0 mm 596 W/m2
10:40 24.9 °C 17.9 °C 1012.4 hPa NNW 1.6 km/h 17.7 km/h 65 % 0.0 mm 608 W/m2
10:45 25.3 °C 17.7 °C 1012.4 hPa NNW 9.7 km/h 16.1 km/h 63 % 0.0 mm 622 W/m2
10:50 25.4 °C 17.8 °C 1012.4 hPa NW 9.7 km/h 12.9 km/h 63 % 0.0 mm 633 W/m2
10:55 25.7 °C 17.6 °C 1012.4 hPa North 4.8 km/h 12.9 km/h 61 % 0.0 mm 645 W/m2
11:00 26.0 °C 17.9 °C 1012.1 hPa ENE 6.4 km/h 14.5 km/h 61 % 0.0 mm 656 W/m2
11:05 26.1 °C 17.7 °C 1012.1 hPa ENE 8.0 km/h 16.1 km/h 60 % 0.0 mm 664 W/m2
11:10 26.4 °C 18.1 °C 1012.1 hPa North 9.7 km/h 16.1 km/h 60 % 0.0 mm 679 W/m2
11:20 26.3 °C 17.9 °C 1012.1 hPa North 3.2 km/h 17.7 km/h 60 % 0.0 mm 698 W/m2
11:25 26.7 °C 18.3 °C 1012.1 hPa ENE 14.5 km/h 16.1 km/h 60 % 0.0 mm 710 W/m2
11:30 26.8 °C 17.8 °C 1012.1 hPa NNE 9.7 km/h 16.1 km/h 58 % 0.0 mm 717 W/m2
11:35 27.2 °C 18.2 °C 1012.1 hPa NNE 4.8 km/h 16.1 km/h 58 % 0.0 mm 728 W/m2
11:40 27.3 °C 18.0 °C 1012.1 hPa ENE 12.9 km/h 17.7 km/h 57 % 0.0 mm 735 W/m2
11:45 27.4 °C 18.2 °C 1012.1 hPa NE 3.2 km/h 17.7 km/h 57 % 0.0 mm 745 W/m2
11:50 27.8 °C 17.9 °C 1012.1 hPa NNW 8.0 km/h 19.3 km/h 55 % 0.0 mm 751 W/m2
11:55 27.8 °C 18.2 °C 1012.1 hPa NNW 8.0 km/h 19.3 km/h 56 % 0.0 mm 761 W/m2
12:00 28.0 °C 18.1 °C 1012.1 hPa NNE 9.7 km/h 17.7 km/h 55 % 0.0 mm 770 W/m2
12:05 28.1 °C 17.6 °C 1011.7 hPa ENE 12.9 km/h 16.1 km/h 53 % 0.0 mm 779 W/m2
12:10 28.3 °C 18.1 °C 1011.7 hPa NNE 4.8 km/h 14.5 km/h 54 % 0.0 mm 788 W/m2
12:15 28.8 °C 18.3 °C 1011.7 hPa NNW 9.7 km/h 16.1 km/h 53 % 0.0 mm 795 W/m2
12:20 28.7 °C 17.9 °C 1011.7 hPa West 4.8 km/h 17.7 km/h 52 % 0.0 mm 800 W/m2
12:25 28.8 °C 18.2 °C 1011.7 hPa WNW 6.4 km/h 17.7 km/h 53 % 0.0 mm 803 W/m2
12:30 29.5 °C 18.6 °C 1011.7 hPa NNE 9.7 km/h 20.9 km/h 52 % 0.0 mm 812 W/m2
12:35 29.2 °C 18.0 °C 1011.7 hPa Calm   20.9 km/h 51 % 0.0 mm 819 W/m2
12:40 29.4 °C 18.9 °C 1011.7 hPa WNW 4.8 km/h 12.9 km/h 53 % 0.0 mm 824 W/m2
12:45 29.6 °C 17.8 °C 1011.7 hPa North 8.0 km/h 12.9 km/h 49 % 0.0 mm 828 W/m2
12:50 29.7 °C 17.5 °C 1011.7 hPa NW 9.7 km/h 17.7 km/h 48 % 0.0 mm 837 W/m2
12:55 29.6 °C 18.1 °C 1011.7 hPa NNE 4.8 km/h 17.7 km/h 50 % 0.0 mm 840 W/m2
13:00 30.2 °C 17.9 °C 1011.7 hPa ENE 4.8 km/h 14.5 km/h 48 % 0.0 mm 847 W/m2
13:05 29.9 °C 18.1 °C 1011.7 hPa East 9.7 km/h 17.7 km/h 49 % 0.0 mm 851 W/m2
13:10 30.4 °C 17.8 °C 1011.7 hPa NNW 9.7 km/h 17.7 km/h 47 % 0.0 mm 860 W/m2
13:15 30.1 °C 18.2 °C 1011.7 hPa NW 4.8 km/h 14.5 km/h 49 % 0.0 mm 861 W/m2
13:20 30.0 °C 17.8 °C 1011.7 hPa NNE 4.8 km/h 16.1 km/h 48 % 0.0 mm 872 W/m2
13:25 30.3 °C 17.4 °C 1011.4 hPa ENE 1.6 km/h 19.3 km/h 46 % 0.0 mm 737 W/m2
13:30 30.2 °C 17.6 °C 1011.4 hPa North 1.6 km/h 19.3 km/h 47 % 0.0 mm 846 W/m2
13:35 30.1 °C 17.5 °C 1011.4 hPa North 4.8 km/h 14.5 km/h 47 % 0.0 mm 728 W/m2
13:40 29.9 °C 18.1 °C 1011.4 hPa NW 6.4 km/h 14.5 km/h 49 % 0.0 mm 670 W/m2
13:45 29.7 °C 17.5 °C 1011.4 hPa ENE 4.8 km/h 14.5 km/h 48 % 0.0 mm 459 W/m2
13:55 29.8 °C 17.3 °C 1011.1 hPa North 3.2 km/h 12.9 km/h 47 % 0.0 mm 568 W/m2
14:00 29.9 °C 18.7 °C 1011.1 hPa WNW 8.0 km/h 11.3 km/h 51 % 0.0 mm 816 W/m2
14:05 30.3 °C 17.8 °C 1011.1 hPa NW 4.8 km/h 11.3 km/h 47 % 0.0 mm 496 W/m2
14:10 30.7 °C 18.5 °C 1011.1 hPa North 1.6 km/h 11.3 km/h 48 % 0.0 mm 768 W/m2
14:15 31.1 °C 18.1 °C 1011.1 hPa NW 16.1 km/h 16.1 km/h 46 % 0.0 mm 891 W/m2
14:20 31.2 °C 18.6 °C 1011.1 hPa West 4.8 km/h 17.7 km/h 47 % 0.0 mm 882 W/m2
14:25 31.4 °C 18.4 °C 1011.1 hPa West 11.3 km/h 17.7 km/h 46 % 0.0 mm 882 W/m2
14:30 31.1 °C 18.8 °C 1010.7 hPa WNW 3.2 km/h 16.1 km/h 48 % 0.0 mm 882 W/m2
14:35 31.0 °C 18.0 °C 1011.1 hPa West 6.4 km/h 16.1 km/h 46 % 0.0 mm 888 W/m2
14:40 31.3 °C 19.0 °C 1011.1 hPa WNW 4.8 km/h 16.1 km/h 48 % 0.0 mm 884 W/m2
14:45 31.1 °C 19.1 °C 1011.1 hPa WNW 6.4 km/h 16.1 km/h 49 % 0.0 mm 904 W/m2
14:50 31.1 °C 19.1 °C 1011.1 hPa NW 9.7 km/h 19.3 km/h 49 % 0.0 mm 893 W/m2
14:55 30.4 °C 19.1 °C 1010.7 hPa WNW 11.3 km/h 19.3 km/h 51 % 0.0 mm 879 W/m2
15:00 30.8 °C 19.5 °C 1010.7 hPa West 8.0 km/h 16.1 km/h 51 % 0.0 mm 877 W/m2
15:05 30.6 °C 19.3 °C 1010.7 hPa NNW 8.0 km/h 16.1 km/h 51 % 0.0 mm 875 W/m2
15:10 29.9 °C 19.0 °C 1011.1 hPa WNW 14.5 km/h 22.5 km/h 52 % 0.0 mm 868 W/m2
15:15 29.7 °C 18.8 °C 1010.7 hPa WNW 6.4 km/h 22.5 km/h 52 % 0.0 mm 863 W/m2
15:20 29.2 °C 18.6 °C 1010.7 hPa WSW 9.7 km/h 22.5 km/h 53 % 0.0 mm 847 W/m2
15:25 29.7 °C 18.8 °C 1010.7 hPa WNW 6.4 km/h 22.5 km/h 52 % 0.0 mm 849 W/m2
15:30 29.7 °C 18.8 °C 1010.7 hPa WNW 8.0 km/h 19.3 km/h 52 % 0.0 mm 847 W/m2
15:35 30.1 °C 19.4 °C 1010.7 hPa WSW 3.2 km/h 19.3 km/h 53 % 0.0 mm 844 W/m2
15:40 29.9 °C 18.7 °C 1010.7 hPa WNW 8.0 km/h 24.1 km/h 51 % 0.0 mm 842 W/m2
15:45 29.8 °C 19.2 °C 1010.7 hPa West 8.0 km/h 24.1 km/h 53 % 0.0 mm 837 W/m2
15:50 30.4 °C 18.8 °C 1010.7 hPa West 11.3 km/h 20.9 km/h 50 % 0.0 mm 838 W/m2
15:55 29.9 °C 18.3 °C 1010.7 hPa WNW 11.3 km/h 20.9 km/h 50 % 0.0 mm 817 W/m2
16:00 29.7 °C 19.1 °C 1010.7 hPa WNW 3.2 km/h 25.7 km/h 53 % 0.0 mm 809 W/m2
16:05 29.8 °C 18.9 °C 1010.7 hPa West 3.2 km/h 25.7 km/h 52 % 0.0 mm 788 W/m2
16:10 29.9 °C 19.6 °C 1010.7 hPa NW 16.1 km/h 22.5 km/h 54 % 0.0 mm 788 W/m2
16:15 29.9 °C 19.3 °C 1010.7 hPa NW 4.8 km/h 20.9 km/h 53 % 0.0 mm 763 W/m2
16:20 29.9 °C 18.7 °C 1010.7 hPa WNW 11.3 km/h 22.5 km/h 51 % 0.0 mm 754 W/m2
16:25 29.6 °C 19.3 °C 1010.7 hPa NW 11.3 km/h 22.5 km/h 54 % 0.0 mm 747 W/m2
16:30 29.3 °C 19.0 °C 1010.7 hPa West 16.1 km/h 22.5 km/h 54 % 0.0 mm 680 W/m2
16:35 29.6 °C 19.6 °C 1010.7 hPa WNW 14.5 km/h 22.5 km/h 55 % 0.0 mm 721 W/m2
16:40 29.8 °C 19.2 °C 1010.7 hPa WNW 14.5 km/h 24.1 km/h 53 % 0.0 mm 717 W/m2
16:45 29.5 °C 19.2 °C 1010.4 hPa NW 4.8 km/h 24.1 km/h 54 % 0.0 mm 714 W/m2
16:50 29.6 °C 19.0 °C 1010.4 hPa NW 9.7 km/h 20.9 km/h 53 % 0.0 mm 703 W/m2
16:55 29.7 °C 18.8 °C 1010.4 hPa NW 14.5 km/h 20.9 km/h 52 % 0.0 mm 694 W/m2
17:00 29.7 °C 19.1 °C 1010.4 hPa West 8.0 km/h 20.9 km/h 53 % 0.0 mm 687 W/m2
17:05 29.9 °C 19.3 °C 1010.4 hPa WNW 4.8 km/h 20.9 km/h 53 % 0.0 mm 670 W/m2
17:10 29.9 °C 19.3 °C 1010.4 hPa WNW 11.3 km/h 20.9 km/h 53 % 0.0 mm 657 W/m2
17:20 30.0 °C 19.4 °C 1010.4 hPa NW 9.7 km/h 20.9 km/h 53 % 0.0 mm 638 W/m2
17:25 29.7 °C 18.5 °C 1010.0 hPa WNW 9.7 km/h 22.5 km/h 51 % 0.0 mm 626 W/m2
17:30 29.9 °C 19.0 °C 1010.0 hPa WNW 6.4 km/h 22.5 km/h 52 % 0.0 mm 615 W/m2
17:35 29.3 °C 18.5 °C 1010.0 hPa NW 9.7 km/h 24.1 km/h 52 % 0.0 mm 601 W/m2
17:40 29.4 °C 18.6 °C 1010.0 hPa NW 12.9 km/h 24.1 km/h 52 % 0.0 mm 545 W/m2
17:45 28.6 °C 18.4 °C 1010.0 hPa WNW 6.4 km/h 24.1 km/h 54 % 0.0 mm 550 W/m2
17:50 28.8 °C 18.5 °C 1010.0 hPa NW 9.7 km/h 24.1 km/h 54 % 0.0 mm 548 W/m2
17:55 28.8 °C 18.3 °C 1010.0 hPa WNW 9.7 km/h 22.5 km/h 53 % 0.0 mm 568 W/m2
18:00 28.8 °C 18.2 °C 1010.0 hPa West 11.3 km/h 22.5 km/h 53 % 0.0 mm 492 W/m2
18:05 28.4 °C 18.5 °C 1010.0 hPa WNW 6.4 km/h 22.5 km/h 55 % 0.0 mm 547 W/m2
18:10 28.2 °C 18.0 °C 1010.0 hPa NW 14.5 km/h 22.5 km/h 54 % 0.0 mm 468 W/m2
18:15 27.6 °C 17.8 °C 1010.0 hPa WNW 8.0 km/h 25.7 km/h 55 % 0.0 mm 494 W/m2
18:20 27.6 °C 18.0 °C 1010.0 hPa West 6.4 km/h 25.7 km/h 56 % 0.0 mm 169 W/m2
18:25 27.1 °C 18.1 °C 1010.0 hPa NW 6.4 km/h 19.3 km/h 58 % 0.0 mm 181 W/m2
18:30 26.8 °C 17.9 °C 1010.0 hPa West 8.0 km/h 19.3 km/h 58 % 0.0 mm 267 W/m2
18:35 27.1 °C 18.1 °C 1010.0 hPa West 9.7 km/h 19.3 km/h 58 % 0.0 mm 248 W/m2
18:40 26.8 °C 18.4 °C 1010.0 hPa WNW 1.6 km/h 17.7 km/h 60 % 0.0 mm 301 W/m2
18:45 27.0 °C 18.3 °C 1010.0 hPa WNW 14.5 km/h 19.3 km/h 59 % 0.0 mm 578 W/m2
18:50 27.7 °C 18.4 °C 1010.0 hPa WNW 4.8 km/h 19.3 km/h 57 % 0.0 mm 589 W/m2
18:55 28.6 °C 18.6 °C 1010.0 hPa West 6.4 km/h 19.3 km/h 55 % 0.0 mm 503 W/m2
19:00 28.0 °C 18.4 °C 1010.0 hPa WNW 8.0 km/h 20.9 km/h 56 % 0.0 mm 490 W/m2
19:05 27.8 °C 17.7 °C 1010.0 hPa WNW 4.8 km/h 20.9 km/h 54 % 0.0 mm 250 W/m2
19:10 27.1 °C 17.3 °C 1010.0 hPa WNW 9.7 km/h 19.3 km/h 55 % 0.0 mm 183 W/m2
19:15 26.3 °C 17.4 °C 1010.0 hPa WNW 6.4 km/h 19.3 km/h 58 % 0.0 mm 167 W/m2
19:20 25.9 °C 17.6 °C 1010.0 hPa West 8.0 km/h 19.3 km/h 60 % 0.0 mm 193 W/m2
19:25 25.9 °C 17.5 °C 1010.0 hPa WNW 8.0 km/h 22.5 km/h 60 % 0.0 mm 186 W/m2
19:30 26.0 °C 17.6 °C 1010.0 hPa West 11.3 km/h 22.5 km/h 60 % 0.0 mm 169 W/m2
19:35 25.7 °C 17.4 °C 1010.0 hPa WNW 6.4 km/h 16.1 km/h 60 % 0.0 mm 155 W/m2
19:40 25.3 °C 17.5 °C 1010.0 hPa NW 4.8 km/h 19.3 km/h 62 % 0.0 mm 144 W/m2
19:45 25.1 °C 17.6 °C 1010.0 hPa WNW 4.8 km/h 19.3 km/h 63 % 0.0 mm 130 W/m2
19:50 24.9 °C 17.1 °C 1010.0 hPa WNW 9.7 km/h 16.1 km/h 62 % 0.0 mm 125 W/m2
19:55 24.9 °C 17.6 °C 1010.0 hPa WNW 4.8 km/h 19.3 km/h 64 % 0.0 mm 193 W/m2
20:00 25.0 °C 17.5 °C 1010.0 hPa WNW 11.3 km/h 20.9 km/h 63 % 0.0 mm 135 W/m2
20:05 24.7 °C 17.5 °C 1010.0 hPa NW 8.0 km/h 20.9 km/h 64 % 0.0 mm 114 W/m2
20:10 24.6 °C 17.5 °C 1010.0 hPa NNW 8.0 km/h 17.7 km/h 65 % 0.0 mm 105 W/m2
20:15 24.4 °C 17.4 °C 1010.4 hPa WNW 9.7 km/h 16.1 km/h 65 % 0.0 mm 128 W/m2
20:20 24.4 °C 17.6 °C 1010.0 hPa NW 12.9 km/h 17.7 km/h 66 % 0.0 mm 105 W/m2
20:25 24.2 °C 17.7 °C 1010.4 hPa Calm   17.7 km/h 67 % 0.0 mm 104 W/m2
20:30 24.1 °C 17.8 °C 1010.4 hPa West 12.9 km/h 16.1 km/h 68 % 0.0 mm 86 W/m2
20:35 23.9 °C 17.6 °C 1010.4 hPa WNW 14.5 km/h 19.3 km/h 68 % 0.0 mm 118 W/m2
20:40 23.9 °C 17.7 °C 1010.4 hPa NW 8.0 km/h 19.3 km/h 68 % 0.0 mm 93 W/m2
20:45 23.8 °C 18.0 °C 1010.4 hPa West 6.4 km/h 16.1 km/h 70 % 0.0 mm 86 W/m2
20:50 23.5 °C 17.5 °C 1010.4 hPa WNW 8.0 km/h 14.5 km/h 69 % 0.0 mm 60 W/m2
20:55 23.3 °C 17.3 °C 1010.4 hPa NW 6.4 km/h 14.5 km/h 69 % 0.0 mm 42 W/m2
21:00 23.1 °C 17.6 °C 1010.4 hPa WNW 8.0 km/h 14.5 km/h 71 % 0.0 mm 37 W/m2
21:05 22.9 °C 17.4 °C 1010.7 hPa WNW 6.4 km/h 14.5 km/h 71 % 0.0 mm 39 W/m2
21:10 22.8 °C 17.3 °C 1010.7 hPa WNW 4.8 km/h 12.9 km/h 71 % 0.0 mm 39 W/m2
21:15 22.8 °C 17.2 °C 1010.7 hPa NW 6.4 km/h 17.7 km/h 71 % 0.0 mm 33 W/m2
21:20 22.7 °C 17.4 °C 1010.7 hPa WNW 8.0 km/h 17.7 km/h 72 % 0.0 mm 33 W/m2
21:25 22.6 °C 17.3 °C 1010.7 hPa WNW 6.4 km/h 14.5 km/h 72 % 0.0 mm 30 W/m2
21:30 22.4 °C 17.1 °C 1010.7 hPa WNW 9.7 km/h 16.1 km/h 72 % 0.0 mm 19 W/m2
21:35 22.3 °C 17.2 °C 1010.7 hPa NW 11.3 km/h 19.3 km/h 73 % 0.0 mm 16 W/m2
21:40 22.1 °C 17.3 °C 1010.7 hPa NNW 4.8 km/h 19.3 km/h 74 % 0.0 mm 12 W/m2
21:45 21.9 °C 17.3 °C 1010.7 hPa WNW 4.8 km/h 14.5 km/h 75 % 0.0 mm 9 W/m2
21:50 21.8 °C 17.6 °C 1010.7 hPa NW 8.0 km/h 14.5 km/h 77 % 0.0 mm 7 W/m2
22:00 21.3 °C 17.5 °C 1011.1 hPa WNW 1.6 km/h 12.9 km/h 79 % 0.0 mm 5 W/m2
22:05 21.1 °C 17.7 °C 1011.1 hPa WNW 1.6 km/h 9.7 km/h 81 % 0.0 mm 0 W/m2
22:10 20.9 °C 17.8 °C 1011.1 hPa WNW 4.8 km/h 11.3 km/h 82 % 0.0 mm 0 W/m2
22:15 20.8 °C 17.6 °C 1011.1 hPa NW 4.8 km/h 14.5 km/h 82 % 0.0 mm 0 W/m2
22:20 20.8 °C 17.6 °C 1011.1 hPa NW 4.8 km/h 14.5 km/h 82 % 0.0 mm 0 W/m2
22:25 20.7 °C 17.5 °C 1011.1 hPa Calm   12.9 km/h 82 % 0.0 mm 0 W/m2
22:30 20.7 °C 17.7 °C 1011.1 hPa WNW 6.4 km/h 12.9 km/h 83 % 0.0 mm 0 W/m2
22:35 20.7 °C 17.7 °C 1011.1 hPa West 3.2 km/h 14.5 km/h 83 % 0.0 mm 0 W/m2
22:40 20.7 °C 17.5 °C 1011.1 hPa WNW 4.8 km/h 14.5 km/h 82 % 0.0 mm 0 W/m2
22:45 20.7 °C 17.5 °C 1011.1 hPa West 9.7 km/h 12.9 km/h 82 % 0.0 mm 0 W/m2
22:50 20.7 °C 17.7 °C 1011.1 hPa NW 8.0 km/h 12.9 km/h 83 % 0.0 mm 0 W/m2
22:55 20.7 °C 17.7 °C 1011.4 hPa Calm   12.9 km/h 83 % 0.0 mm 0 W/m2
23:00 20.6 °C 17.6 °C 1011.1 hPa NW 8.0 km/h 11.3 km/h 83 % 0.0 mm 0 W/m2
23:05 20.4 °C 17.5 °C 1011.1 hPa NW 4.8 km/h 11.3 km/h 83 % 0.0 mm 0 W/m2
23:10 20.4 °C 17.6 °C 1011.1 hPa West 1.6 km/h 9.7 km/h 84 % 0.0 mm 0 W/m2
23:15 20.3 °C 17.3 °C 1011.1 hPa WNW 4.8 km/h 8.0 km/h 83 % 0.0 mm 0 W/m2
23:20 20.3 °C 17.5 °C 1011.4 hPa WNW 3.2 km/h 6.4 km/h 84 % 0.0 mm 0 W/m2
23:25 20.3 °C 17.5 °C 1011.4 hPa Calm   8.0 km/h 84 % 0.0 mm 0 W/m2
23:30 20.3 °C 17.5 °C 1011.7 hPa Calm   8.0 km/h 84 % 0.0 mm 0 W/m2
23:35 20.3 °C 17.5 °C 1011.7 hPa Calm   6.4 km/h 84 % 0.0 mm 0 W/m2
23:40 20.4 °C 17.6 °C 1011.7 hPa West 3.2 km/h 6.4 km/h 84 % 0.0 mm 0 W/m2
23:45 20.3 °C 17.7 °C 1011.4 hPa Calm   4.8 km/h 85 % 0.0 mm 0 W/m2
23:50 20.2 °C 17.6 °C 1011.4 hPa Calm   4.8 km/h 85 % 0.0 mm 0 W/m2
23:55 20.2 °C 17.7 °C 1011.4 hPa Calm   4.8 km/h 86 % 0.0 mm 0 W/m2
Avec l'autorisation de Weather Underground - 1.75 mb